EW4638 Weather Reports


time (UTC)temp
F
wind
direction
speed
knots
gust
knots
rain 1hr
in
rain 24hr
in
rain mn
in
humidity
%
barometer
mb
20260903101523 73 293 0.0 0.0 0.00 0.00 0.00 85 1015.5
20260903100029 74 293 0.0 0.0 0.00 0.00 0.00 85 1015.5
20260903094522 74 293 0.0 0.0 0.00 0.00 0.00 84 1015.5
20260903093022 74 293 0.0 0.0 0.00 0.00 0.00 84 1015.5
20260903091520 74 293 0.0 0.0 0.00 0.00 0.00 83 1015.5
20260903090019 74 293 0.0 0.0 0.00 0.00 0.00 83 1015.4
20260903084537 74 293 0.0 0.0 0.00 0.00 0.00 83 1015.2
20260903083017 75 293 0.0 0.0 0.00 0.00 0.00 83 1015.2
20260903081515 75 293 0.0 0.0 0.00 0.00 0.00 83 1015.2
20260903080014 75 293 0.0 0.0 0.00 0.00 0.00 83 1015.3
20260903074512 75 293 0.0 0.0 0.00 0.00 0.00 83 1015.2
20260903073012 75 293 0.0 0.0 0.00 0.00 0.00 83 1015.2
20260903071512 75 293 0.0 0.0 0.00 0.00 0.00 83 1015.2
20260903070010 75 293 0.0 0.0 0.00 0.00 0.00 82 1015.1
20260903063010 76 293 0.0 0.0 0.00 0.00 0.00 80 1015.1
20260903061506 77 293 0.0 0.0 0.00 0.00 0.00 79 1015.1
20260903060003 77 293 0.0 0.0 0.00 0.00 0.00 79 1015.2
20260903054502 78 293 0.0 0.0 0.00 0.00 0.00 79 1015.2
20260903053115 78 293 0.0 0.0 0.00 0.00 0.00 80 1015.3
20260903053001 78 293 0.0 0.0 0.00 0.00 0.00 80 1015.3
20260903051559 78 293 0.0 0.0 0.00 0.00 0.00 80 1015.4
20260903050104 78 293 0.0 0.0 0.00 0.00 0.00 79 1015.4
20260903044602 78 293 0.0 0.0 0.00 0.00 0.00 77 1015.3
20260903043107 78 293 0.0 0.0 0.00 0.00 0.00 77 1015.3
20260903041554 78 293 0.0 0.0 0.00 0.00 0.00 76 1015.4
20260903040052 79 293 0.0 0.0 0.00 0.00 0.00 75 1015.4
20260903034546 79 293 0.0 0.0 0.00 0.00 0.00 74 1015.4
20260903033045 80 293 0.0 1.7 0.00 0.00 0.00 74 1015.6
20260903031543 81 293 0.0 0.0 0.00 0.00 0.00 73 1015.5
20260903030043 81 293 0.0 0.0 0.00 0.00 0.00 71 1015.5
20260903024542 82 293 0.0 0.0 0.00 0.00 0.00 70 1015.4
20260903023041 82 293 0.0 0.0 0.00 0.00 0.00 69 1015.4
20260903021549 83 293 0.0 0.0 0.00 0.00 0.00 69 1015.4
20260903020041 83 293 0.0 0.0 0.00 0.00 0.00 70 1015.4
20260903014542 84 293 0.0 0.0 0.00 0.00 0.00 67 1015.3
20260903013040 84 293 0.0 0.0 0.00 0.00 0.00 66 1015.2
20260903011539 85 293 0.0 0.0 0.00 0.00 0.00 66 1015.0
20260903010036 86 293 0.0 0.0 0.00 0.00 0.00 65 1014.8
20260903004536 87 293 0.0 0.0 0.00 0.00 0.00 63 1014.8
20260903003036 87 293 0.0 0.0 0.00 0.00 0.00 61 1014.7
20260903001534 88 293 0.0 0.0 0.00 0.00 0.00 59 1014.7
20260903000035 89 293 0.0 0.0 0.00 0.00 0.00 57 1014.5
20260902234532 90 293 0.0 0.0 0.00 0.00 0.00 56 1014.6
20260902233030 91 293 0.0 0.0 0.00 0.00 0.00 55 1014.8
20260902231532 92 293 0.0 0.0 0.00 0.00 0.00 53 1014.7
20260902230029 92 293 0.0 0.0 0.00 0.00 0.00 51 1014.8
20260902224529 93 293 0.0 0.0 0.00 0.00 0.00 51 1014.9
20260902223027 94 264 0.0 0.0 0.00 0.00 0.00 50 1015.0
20260902221530 95 264 0.0 0.0 0.00 0.00 0.00 48 1015.0
20260902220039 96 355 0.0 0.9 0.00 0.00 0.00 46 1015.0
20260902214524 96 355 0.0 0.9 0.00 0.00 0.00 46 1015.1
20260902213122 96 355 0.0 0.0 0.00 0.00 0.00 45 1015.1
20260902211519 96 355 0.0 0.0 0.00 0.00 0.00 48 1015.1
20260902210039 95 355 0.0 0.0 0.00 0.00 0.00 49 1015.1
20260902203013 95 36 0.0 0.0 0.00 0.00 0.00 50 1015.3
20260902201511 94 36 0.0 0.0 0.00 0.00 0.00 52 1015.5
20260902200011 93 37 0.0 0.0 0.00 0.00 0.00 54 1015.6
20260902194508 92 36 0.0 0.0 0.00 0.00 0.00 53 1015.8
20260902193007 91 36 0.0 0.0 0.00 0.00 0.00 55 1016.1
20260902191506 91 36 0.0 0.0 0.00 0.00 0.00 58 1016.3
20260902190008 91 36 0.0 0.0 0.00 0.00 0.00 59 1016.4
20260902184504 92 36 0.0 0.0 0.00 0.00 0.00 56 1016.4
20260902183004 93 36 0.0 0.0 0.00 0.00 0.00 56 1016.5
20260902181503 93 36 0.0 0.0 0.00 0.00 0.00 54 1016.6
20260902180005 94 36 0.0 0.9 0.00 0.00 0.00 50 1016.7
20260902174502 95 355 0.0 0.0 0.00 0.00 0.00 50 1016.8
20260902173059 95 348 0.0 0.0 0.00 0.00 0.00 49 1017.1
20260902171557 94 348 0.0 2.6 0.00 0.00 0.00 52 1017.3
20260902170155 94 293 0.0 0.0 0.00 0.00 0.00 49 1017.5
20260902164552 93 292 0.0 0.0 0.00 0.00 0.00 51 1017.6
20260902163049 93 290 0.0 2.6 0.00 0.00 0.00 53 1017.8
20260902161545 92 290 0.0 0.0 0.00 0.00 0.00 54 1017.9
20260902160046 91 226 0.0 0.9 0.00 0.00 0.00 57 1018.1
20260902154539 90 316 0.0 2.6 0.00 0.00 0.00 61 1018.2
20260902153040 88 315 0.0 3.5 0.00 0.00 0.00 64 1018.3
20260902151529 86 229 0.0 2.6 0.00 0.00 0.00 68 1018.3
20260902150025 83 297 0.0 0.0 0.00 0.00 0.00 74 1018.2
20260902144534 80 297 0.0 1.7 0.00 0.00 0.00 79 1018.1
20260902143016 78 239 0.0 0.0 0.00 0.00 0.00 82 1018.0
20260902141513 77 26 0.0 0.0 0.00 0.00 0.00 83 1018.0
20260902140011 75 28 0.0 0.0 0.00 0.00 0.00 85 1018.0
20260902134514 74 28 0.0 0.0 0.00 0.00 0.00 85 1018.2
20260902133008 73 28 0.0 0.0 0.00 0.00 0.00 85 1018.0
20260902131607 73 29 0.0 0.9 0.00 0.00 0.00 85 1018.1
20260902130006 72 29 0.0 0.0 0.00 0.00 0.00 85 1018.1
20260902124506 72 29 0.0 1.7 0.00 0.00 0.00 86 1018.1
20260902123005 72 29 0.0 0.0 0.00 0.00 0.00 85 1018.0
20260902121600 71 29 0.0 0.0 0.00 0.00 0.00 86 1017.9
20260902120059 71 29 0.0 0.0 0.00 0.00 0.00 86 1017.9
20260902114556 71 29 0.0 0.0 0.00 0.00 0.00 85 1017.6
20260902113055 71 62 0.0 0.0 0.00 0.00 0.00 85 1017.4
20260902111549 71 62 0.0 0.0 0.00 0.00 0.00 85 1017.2
20260902110048 71 62 0.0 0.0 0.00 0.00 0.00 85 1017.0
20260902104548 71 62 0.0 0.0 0.00 0.00 0.00 85 1017.0
20260902103044 71 62 0.0 0.0 0.00 0.00 0.00 85 1016.7